Weather observations for the past three days for
Columbia - Jim Hamilton L.B. Owens Airport
Imperial (Metric)
Date Time (edt) Wind (mph) Vis. (mi.) Weather Sky Cond. Temperature (ºF) Relative Humidity Wind Chill (°F) Heat Index (°F) Pressure Precipitation (in)
Air Dwpt 6 hour altimeter (in) sea level (mb) 1 hr 3 hr 6 hr
Max. Min.
12 05:53 Calm 10.00 A Few Clouds FEW110 77 69.1 77% 79 30 1015.7
12 04:53 Calm 10.00 Mostly Cloudy BKN095 77 70 79% 79 30 1015.6
12 03:53 Calm 10.00 Mostly Cloudy BKN100 78.1 69.1 74% 80 30 1015.4
12 02:53 Calm 10.00 Overcast OVC100 78.1 69.1 74% 80 29.99 1015.3
12 01:53 Calm 10.00 Fair CLR 78.1 68 90 78.1 71% 80 30 1015.6
12 00:53 Calm 10.00 Fair CLR 80.1 68 67% 83 30.01 1015.7
11 23:53 Calm 10.00 Fair CLR 81 68 65% 84 30 1015.6
11 22:53 Calm 10.00 Fair CLR 82.9 66.9 59% 86 29.99 1015.4
11 21:53 Calm 10.00 Fair CLR 86 66.9 53% 89 29.98 1015.0
11 20:53 Calm 10.00 Partly Cloudy SCT075 88 64.9 46% 90 29.97 1014.7
11 19:53 N 6 10.00 Fair CLR 89.1 66 93.9 89.1 47% 92 29.96 1014.3
11 18:53 Vrbl 3 10.00 Mostly Cloudy BKN060 91 66 44% 94 29.95 1013.9
11 17:53 Vrbl 6 10.00 Mostly Cloudy BKN070 91 64.9 42% 93 29.94 1013.4
11 16:53 Vrbl 5 10.00 Partly Cloudy SCT060 91 64.9 42% 93 29.94 1013.5
11 15:53 Calm 10.00 A Few Clouds FEW065 91.9 64.9 41% 94 29.94 1013.7
11 14:53 N 6 10.00 A Few Clouds FEW055 91.9 64.9 41% 94 29.95 1014.0
11 13:53 Calm 10.00 Partly Cloudy SCT070 89.1 64 91 78.1 43% 90 29.97 1014.5
11 12:53 Vrbl 5 10.00 Fair CLR 88 63 43% 89 29.98 1014.7
11 11:53 Vrbl 5 10.00 Fair CLR 87.1 62.1 43% 88 29.99 1015.1
11 10:53 NE 5 10.00 Fair CLR 84.9 62.1 46% 85 29.99 1015.3
11 09:53 Vrbl 7 10.00 Fair CLR 82 61 49% 83 29.99 1015.2
11 08:53 N 8 G 20 10.00 Fair CLR 80.1 60.1 51% 81 29.98 1015.0
11 07:53 Vrbl 6 10.00 A Few Clouds FEW060 78.1 61 82 75 56% 80 29.97 1014.5
11 06:53 N 3 10.00 Fair CLR 75 63 66% 77 29.95 1013.7
11 05:53 Calm 10.00 Fair CLR 75 64 69% 77 29.93 1013.3
11 04:53 Calm 10.00 Fair CLR 77 64 64% 79 29.91 1012.6
11 03:53 Calm 10.00 Fair CLR 78.1 64.9 64% 80 29.9 1012.3
11 02:53 Calm 10.00 Fair CLR 80.1 64.9 60% 82 29.9 1012.1
11 01:53 Vrbl 5 10.00 Fair CLR 82.9 66 91 81 57% 85 29.9 1012.2
11 00:53 NW 5 10.00 A Few Clouds FEW060 82.9 66.9 59% 86 29.91 1012.5
10 23:53 W 8 10.00 Fair CLR 84 64.9 53% 86 29.9 1012.2
10 22:53 W 8 10.00 Fair CLR 86 66 51% 88 29.89 1011.8
10 21:53 W 6 10.00 Fair CLR 87.1 66 50% 89 29.88 1011.5
10 20:53 W 7 10.00 Fair CLR 89.1 66 47% 92 29.87 1011.2
10 19:53 W 9 10.00 Fair CLR 91 66 96.1 91 44% 94 29.86 1010.9
10 18:53 SW 9 10.00 Fair CLR 93 64.9 40% 95 29.86 1010.7
10 17:53 W 14 10.00 Fair CLR 93.9 64.9 38% 96 29.84 1010.1
10 16:53 W 6 10.00 Fair CLR 96.1 66 37% 100 29.83 1009.8
10 15:53 W 9 G 18 10.00 A Few Clouds FEW060 96.1 66.9 39% 100 29.84 1010.3
10 14:53 SW 9 G 18 10.00 Fair CLR 95 68 41% 100 29.86 1010.8
10 13:53 W 9 G 20 10.00 Fair CLR 93.9 68 93.9 79 43% 98 29.88 1011.4
10 12:53 SW 9 10.00 Fair CLR 93 69.1 46% 98 29.89 1011.7
10 11:53 W 9 G 16 10.00 Fair CLR 91 70 50% 97 29.9 1012.1
10 10:53 W 9 10.00 Fair CLR 89.1 72 57% 96 29.91 1012.6
10 09:53 W 7 10.00 Fair CLR 86 73 65% 93 29.91 1012.6
10 08:53 W 7 10.00 Fair CLR 82 73.9 77% 88 29.92 1012.9
10 07:53 SW 5 10.00 Partly Cloudy SCT016 79 75 80.1 77 88% 83 29.92 1012.9
10 06:53 SW 3 10.00 Fair CLR 78.1 73.9 87% 81 29.91 1012.6
10 05:53 Calm 10.00 Fair CLR 77 73.9 90% 78 29.9 1012.3
10 04:53 SW 3 10.00 Fair CLR 78.1 75 90% 81 29.9 1012.1
10 03:53 Calm 10.00 Fair CLR 80.1 75 85% 85 29.89 1011.9
10 02:53 Calm 10.00 A Few Clouds FEW055 79 75 88% 83 29.91 1012.4
10 01:53 S 3 10.00 Mostly Cloudy BKN050 79 75.9 88 79 90% 83 29.92 1012.9
10 00:53 S 3 10.00 Fair CLR 79 75.9 90% 83 29.93 1013.2
09 23:53 Calm 10.00 Fair CLR 81 75 82% 87 29.93 1013.3
09 22:53 SE 3 10.00 Fair CLR 82 75.9 82% 89 29.94 1013.4
09 21:53 S 6 10.00 Fair CLR 84 75.9 77% 93 29.93 1013.1
09 20:53 SW 5 10.00 Fair CLR 86 73.9 67% 94 29.93 1013.3
09 19:53 S 6 10.00 Fair CLR 88 78.1 93 84.9 73% 102 29.92 1012.8 0.02
09 18:53 S 9 10.00 Fair CLR 91.9 77 62% 106 29.91 1012.7
09 17:53 S 5 10.00 Fair CLR 91.9 75.9 60% 104 29.89 1012.0
09 16:53 S 8 10.00 Fair CLR 91.9 75 58% 103 29.91 1012.7 0.02
09 15:53 S 6 10.00 Fair CLR 90 78.1 68% 105 29.92 1012.8
09 14:53 Vrbl 3 10.00 Thunderstorm in Vicinity CLR 87.1 77 72% 99 29.95 1013.7 0.02
09 13:53 Vrbl 3 10.00 Mostly Cloudy SCT035 BKN055 BKN075 87.1 75.9 93 79 70% 98 29.97 1014.4
09 12:53 Calm 10.00 A Few Clouds FEW060 91 73.9 57% 101 29.97 1014.7
09 11:53 Vrbl 5 10.00 A Few Clouds FEW028 91 77 64% 105 29.99 1015.3
09 10:53 Calm 10.00 Fair CLR 88 77 70% 100 30 1015.5
09 09:53 SW 3 10.00 Fair CLR 84.9 77 77% 95 30 1015.6
09 08:53 S 3 10.00 Fair CLR 81 75.9 85% 87 30.01 1015.8
09 07:53 Calm 10.00 Fair CLR 79 75.9 79 77 90% 83 29.99 1015.4
09 06:53 Calm 9.00 Fair CLR 77 75 94% 78 29.99 1015.1
Date Time (edt) Wind (mph) Vis. (mi.) Weather Sky Cond. Air Dwpt Max. Min. Relative Humidity Wind Chill (°F) Heat Index (°F) altimeter (in) sea level (mb) 1 hr 3 hr 6 hr
6 hour
Temperature (ºF) Pressure Precipitation (in)